Regional Weather Roundup
Issued by NWS

Home | Current Version | Previous Version | Text Only | Print | Product List | Glossary Off
Versions: 1 2 3 4 5 6 7 8 9 10 11 12 13 14 15 16 17 18 19 20 21 22 23 24 25 26 27 28 29 30 31 32 33 34 35 36 37 38 39 40 41 42 43 44 45 46 47 48 49 50

000
ASUS43 KMPX 222201
RWRMN
WEATHER ROUNDUP FOR MINNESOTA
NATIONAL WEATHER SERVICE TWIN CITIES/CHANHASSEN MN
500 PM CDT MON SEP 22 2014


NOTE: "FAIR" INDICATES FEW OR NO CLOUDS BELOW 12,000 FEET WITH NO
SIGNIFICANT WEATHER AND/OR OBSTRUCTIONS TO VISIBILITY. N/A MEANS
CURRENT SKY AND/OR WEATHER CONDITIONS ARE NOT AVAILABLE.

MNZ060>063-068>070-222300-
   Twin Cities Metro

CITY           SKY/WX    TMP DP  RH WIND       PRES   REMARKS
TWIN CITIES    SUNNY     72  49  44 W8        30.17F
ST PAUL        SUNNY     70  51  51 SW6       30.17F
CRYSTAL        SUNNY     72  49  44 SW7       30.15F
BLAINE         SUNNY     72  52  49 SW7       30.17F
LAKEVILLE      SUNNY     70  48  46 SW5       30.18F
EDEN PRAIRIE   SUNNY     72  50  45 SW9       30.16F
SOUTH ST PAUL  SUNNY     72  49  44 W6        30.17F
LAKE ELMO      FAIR      70  54  56 SW7       30.18F
$$
MNZ001>005-007-008-013>017-022>024-027-028-222300-
   Northwest Minnesota

CITY           SKY/WX    TMP DP  RH WIND       PRES   REMARKS
BEMIDJI        SUNNY     72  46  39 W8        30.10F
HALLOCK        SUNNY     79  43  27 SW7       30.01F
ROSEAU         SUNNY     75  52  43 SW9       30.05S
WARROAD        SUNNY     73  52  46 SW8       30.05S
THIEF RVR FALL SUNNY     73  48  40 SW10      30.06F
CROOKSTON      SUNNY     75  48  38 SW12      30.06S
FOSSTON        SUNNY     75  48  38 S9        30.09F
DETROIT LAKES  SUNNY     72  50  46 S9        30.12F
MOORHEAD       SUNNY     75  39  27 S9        30.08F
PARK RAPIDS    SUNNY     71  48  43 SW9       30.12F
MAHNOMEN       FAIR      73  47  40 SW10      30.10F
$$
MNZ006-009>011-018-025>026-222300-
   North Central Minnesota

CITY           SKY/WX    TMP DP  RH WIND       PRES   REMARKS
BAUDETTE       SUNNY     73  48  41 SW10      30.05F
FLAG ISLAND    SUNNY     73  45  35 W7        30.02S
INTL FALLS     SUNNY     73  48  41 VRB6      30.05F
WASKISH        SUNNY     70  52  52 SW3       30.08F
BIG FORK       SUNNY     73  50  43 SW10      30.10S
LONGVILLE      SUNNY     72  50  46 SW7       30.12F
GRAND RAPIDS   SUNNY     70  48  46 SW6       30.12F
CRANE LAKE     SUNNY     72  45  37 W7        30.07F
ORR            SUNNY     73  43  33 W6        30.06S
COOK           SUNNY     72  46  40 W10       30.09S
WALKER         FAIR      71  45  39 SW8       30.11F
$$
MNZ012-019>021-037-222300-
   Northeast Minnesota

CITY           SKY/WX    TMP DP  RH WIND       PRES   REMARKS
DULUTH         MOSUNNY   71  49  45 W13G20    30.11S
ELY            SUNNY     70  46  43 W10G18    30.08S
HIBBING        SUNNY     72  48  42 W10       30.10F
EVELETH        SUNNY     72  48  43 W7        30.11S
DULUTH HARBOR  SUNNY     73  52  46 W14       30.10S
TWO HARBORS    SUNNY     70  52  52 SW15      30.07F
SILVER BAY     SUNNY     70  52  52 W7        30.06S
GRAND MARAIS     N/A     57  51  80 W8        30.04F
G MARAIS ARPRT SUNNY     66  45  45 W10G16    30.07F
$$
MNZ029>031-032-039>041-046>048-054>057-064-222300-
   West Central Minnesota

CITY           SKY/WX    TMP DP  RH WIND       PRES   REMARKS
FERGUS FALLS   SUNNY     73  41  31 S9        30.10F
WHEATON        SUNNY     73  46  38 S7        30.12F
MORRIS         SUNNY     75  48  38 S10       30.12F
ALEXANDRIA     SUNNY     71  49  45 S9        30.15F
ELBOW LAKE     FAIR      72  50  45 S10G17    30.12F
WADENA         SUNNY     72  46  40 SW7       30.12F
GLENWOOD       SUNNY     72  48  43 S7        30.15F
APPLETON       SUNNY     75  45  33 S9        30.12F
BENSON         SUNNY     73  48  40 SW7       30.13F
ORTONVILLE     SUNNY     75  45  33 S6        30.11F
MADISON        SUNNY     79  45  29 S9        30.13F
WILLMAR        FAIR      73  45  35 S6        30.16F
$$
MNZ033>034-036-042>043-049>051-058-059-222300-
   Central Minnesota

CITY           SKY/WX    TMP DP  RH WIND       PRES   REMARKS
ST CLOUD       SUNNY     74  48  39 SW7       30.15F
SAUK CENTRE    FAIR      72  50  45 SW9       30.16F
PAYNESVILLE    SUNNY     68  48  49 SE7       30.16F
AITKIN         SUNNY     73  52  46 SW5       30.12F
PINE RIVER     SUNNY     72  52  49 SW6       30.15F
BRAINERD       SUNNY     70  49  47 SW10      30.14F
STAPLES        SUNNY     70  46  43 SW7       30.13F
LONG PRAIRIE   FAIR      70  48  46 S8        30.15F
LITTLE FALLS   SUNNY     70  45  40 SW6       30.14F
LITCHFIELD     SUNNY     73  50  43 S5        30.17F
BUFFALO        SUNNY     70  49  46 S7        30.17F
MAPLE LAKE     SUNNY     71  52  51 CALM      30.17F
$$
MNZ037-044-045-052-053-222300-
   East Central Minnesota

CITY           SKY/WX    TMP DP  RH WIND       PRES   REMARKS
MORA           SUNNY     70  50  49 W6        30.16F
CAMBRIDGE      SUNNY     73  54  49 SW7       30.14F
RUSH CITY      SUNNY     71  51  48 SW5       30.15F
MOOSE LAKE     SUNNY     70  46  43 W6        30.12F
HINCKLEY       FAIR      70  52  52 SW7       30.15S
CLOQUET        SUNNY     70  46  43 W12G17    30.12F
MCGREGOR       SUNNY     70  50  49 W8        30.14F
$$
MNZ071>073-080-081-089-090-097-098-222300-
   Southwest Minnesota

CITY           SKY/WX    TMP DP  RH WIND       PRES   REMARKS
MONTEVIDEO     SUNNY     79  46  31 SW6       30.14F
GRANITE FALLS  SUNNY     75  46  35 S6        30.15F
CANBY          SUNNY     73  46  37 SW9       30.15S
MARSHALL       SUNNY     73  45  35 S10       30.14F
REDWOOD FALLS  SUNNY     74  46  36 S12       30.15F
OLIVIA         SUNNY     73  48  40 S7        30.15F
PIPESTONE      MOSUNNY   72  45  37 SW10      30.16F
WINDOM         SUNNY     72  46  40 SW9       30.18F
WORTHINGTON    MOSUNNY   72  45  37 S8        30.19F
JACKSON        MOSUNNY   72  46  40 S7        30.20F
TRACY          SUNNY     71  48  43 S10       30.16F
SLAYTON        MOSUNNY   71  42  36 CALM      30.19S
$$
MNZ065>067-074>077-082>085-091>093-222300-
   South Central Minnesota

CITY           SKY/WX    TMP DP  RH WIND       PRES   REMARKS
MANKATO        SUNNY     72  46  40 SW6       30.18F
NEW ULM        SUNNY     73  48  40 S6        30.16F
ST JAMES       SUNNY     73  46  38 S8        30.18F
FAIRMONT       SUNNY     73  45  35 SW9       30.19F
GLENCOE        SUNNY     73  45  36 CALM      30.16F
FARIBAULT      SUNNY     73  43  33 CALM      30.19F
OWATONNA       SUNNY     72  46  40 W6        30.19F
WASECA         SUNNY     72  43  35 S6        30.20F
ALBERT LEA     SUNNY     72  46  40 CALM      30.20F
$$
MNZ078>079-086>088-094>096-222300-
   Southeast Minnesota

CITY           SKY/WX    TMP DP  RH WIND       PRES   REMARKS
ROCHESTER      SUNNY     70  49  47 CALM      30.21F
RED WING       SUNNY     73  48  40 SW7       30.17F
STANTON        SUNNY     71  49  45 SW7       30.17F
DODGE CENTER   SUNNY     70  50  49 SW5       30.20F
WINONA         SUNNY     70  50  49 NW3       30.20F
AUSTIN         SUNNY     70  46  43 W7        30.20F
PRESTON        SUNNY     68  53  58 W5        30.21F
$$
ABBREVIATIONS USED IN REMARKS
   TC - TEMPERATURES IN CELSIUS
  WCI - WIND CHILL INDEX
   HX - HEAT INDEX
  VSB - VISIBILITY
$$


USA.gov is the U.S. government's official web portal to all federal, state and local government web resources and services.